This is the latest recevied weather packets stored in our database for station/object K1RFS. If no packets are shown the sender has not sent any weather packets the latest 10 day(s).
| Time | Temp. | Humidity | Pressure | Rain* | Wind** | Luminosity | Snow |
|---|---|---|---|---|---|---|---|
| 1788642636 | 31.67° C | 13% | 1001.8 hPa | 0 mm | - | 525 W/m² | - |
| 1788642332 | 32.22° C | 13% | 1001.8 hPa | 0 mm | - | 534 W/m² | - |
| 1788642032 | 31.67° C | 13% | 1002 hPa | 0 mm | - | 540 W/m² | - |
| 1788641731 | 31.67° C | 13% | 1001.8 hPa | 0 mm | - | 545 W/m² | - |
| 1788641430 | 32.22° C | 13% | 1002 hPa | 0 mm | - | 549 W/m² | - |
| 1788641125 | 31.67° C | 16% | 1002.1 hPa | 0 mm | - | 552 W/m² | - |
| 1788640821 | 31.11° C | 16% | 1002.1 hPa | 0 mm | - | 559 W/m² | - |
| 1788640520 | 31.67° C | 14% | 1002.2 hPa | 0 mm | - | 562 W/m² | - |
| 1788640216 | 31.67° C | 14% | 1002.3 hPa | 0 mm | - | 564 W/m² | - |
| 1788639911 | 31.11° C | 14% | 1002.2 hPa | 0 mm | - | 569 W/m² | - |
| 1788639606 | 30.56° C | 16% | 1002.4 hPa | 0 mm | - | 573 W/m² | - |
| 1788639302 | 30.56° C | 19% | 1002.5 hPa | 0 mm | - | 576 W/m² | - |
| 1788639001 | 30.56° C | 19% | 1002.5 hPa | 0 mm | - | 575 W/m² | - |
| 1788638697 | 30.56° C | 19% | 1002.5 hPa | 0 mm | - | 579 W/m² | - |
| 1788638395 | 30.56° C | 19% | 1002.5 hPa | 0 mm | - | 581 W/m² | - |
| 1788638091 | 30° C | 19% | 1002.5 hPa | 0 mm | - | 583 W/m² | - |
| 1788637786 | 29.44° C | 20% | 1002.4 hPa | 0 mm | - | 584 W/m² | - |
| 1788637485 | 29.44° C | 19% | 1002.6 hPa | 0 mm | - | 585 W/m² | - |
| 1788637181 | 29.44° C | 20% | 1002.5 hPa | 0 mm | - | 585 W/m² | - |
| 1788636880 | 29.44° C | 20% | 1002.6 hPa | 0 mm | - | 586 W/m² | - |
| 1788636576 | 29.44° C | 19% | 1002.6 hPa | 0 mm | - | 586 W/m² | - |
| 1788636271 | 30° C | 20% | 1002.9 hPa | 0 mm | - | 585 W/m² | - |
| 1788635966 | 30° C | 20% | 1002.6 hPa | 0 mm | - | 584 W/m² | - |
| 1788635660 | 29.44° C | 19% | 1003 hPa | 0 mm | - | 583 W/m² | - |
| 1788635360 | 29.44° C | 16% | 1003.1 hPa | 0 mm | - | 582 W/m² | - |
* Rain latest hour (hover to see other rain measurements)
** Current wind speed in m/s (hover to see current wind gust speed)